Location: Clanezzo
(45.7500°N, 9.6000°E)
Time: 04:29:59
(UTC+00:00)

Gbstr 26 Del rocket - Pass Details

Date: 28 September 2021
Orbit: 492 x 1263 km, 51.8° (Epoch: 20 October)

Event Time Altitude Azimuth Distance (km) Brightness Sun altitude
Rises 21:01:40 0° 263° (W) 3,987 7.6 -38.1°
Reaches altitude 10° 21:04:22 10° 267° (W) 3,103 7.0 -38.4°
Enters shadow 21:10:53 56° 311° (NW) 1,462 5.0 -39.2°
